Weather History for KLNP - November, 2010

Change the Weather History Date:

Thursday, November 11, 2010

  Actual Average Record
Temperature  
Mean Temperature 56 °F -  
Max Temperature 66 °F 51 °F 68 °F (2012)
Min Temperature 46 °F 34 °F 21 °F (1996)
Degree Days  
Heating Degree Days 9    
Growing Degree Days 6 (Base 50)    
Moisture  
Dew Point 27 °F    
Average Humidity 36    
Maximum Humidity 62    
Minimum Humidity 13    
Precipitation  
Precipitation 0.00 in - - ()
Sea Level Pressure  
Sea Level Pressure 30.33 in    
Wind  
Wind Speed 1 mph (North)    
Max Wind Speed 8 mph    
Max Gust Speed -    
Visibility 10 miles    
Events      
Averages and records for this station are not official NWS values.
T = Trace of Precipitation, MM = Missing Value Source: NWS Daily Summary

Daily Weather History Graph

Daily Weather History Graph

Search for Another Location

Airport or City:

Trip Planner

Search our weather history database for the weather conditions in past years. The results will help you decide how hot, cold, wet, or windy it might be!

Date:

Astronomy

Nov. 11, 2010 Rise Set
Actual Time 7:04 AM EST 5:23 PM EST
Civil Twilight 6:36 AM EST 5:50 PM EST
Nautical Twilight 6:05 AM EST 6:21 PM EST
Astronomical Twilight 5:35 AM EST 6:52 PM EST
Moon 12:02 PM EST (11/11) 10:28 PM EST (11/11)
Length of Visible Light 11h 13m
Length of Day
10h 18m
Waxing Crescent, 31% of the Moon is Illuminated
Nov 11
Waxing Crescent
Nov 13
First Quarter
Nov 21
Full
Nov 28
Last Quarter
Dec 5
New

Hourly Weather History & Observations

Time (EST) Temp. Dew Point Humidity Pressure Visibility Wind Dir Wind Speed Gust Speed Precip Events Conditions
12:19 AM 51.8 °F 32.0 °F 47% 30.26 in 10.0 mi Calm Calm - N/A   Clear
12:39 AM 46.4 °F 33.8 °F 62% 30.26 in 10.0 mi Calm Calm - N/A   Clear
12:59 AM 50.0 °F 32.0 °F 50% 30.26 in 10.0 mi Calm Calm - N/A   Clear
1:19 AM 48.2 °F 33.8 °F 58% 30.26 in 10.0 mi Calm Calm - N/A   Clear
1:39 AM 50.0 °F 33.8 °F 54% 30.26 in 10.0 mi Calm Calm - N/A   Clear
1:59 AM 50.0 °F 32.0 °F 50% 30.26 in 10.0 mi Calm Calm - N/A   Clear
2:19 AM 48.2 °F 32.0 °F 54% 30.26 in 10.0 mi Calm Calm - N/A   Clear
2:39 AM 48.2 °F 32.0 °F 54% 30.27 in 10.0 mi Calm Calm - N/A   Clear
2:59 AM 48.2 °F 32.0 °F 54% 30.27 in 10.0 mi Calm Calm - N/A   Clear
3:39 AM 50.0 °F 30.2 °F 47% 30.27 in 10.0 mi Calm Calm - N/A   Clear
3:59 AM 50.0 °F 30.2 °F 47% 30.28 in 10.0 mi Calm Calm - N/A   Clear
4:19 AM 48.2 °F 30.2 °F 50% 30.28 in 10.0 mi Calm Calm - N/A   Clear
4:39 AM 48.2 °F 32.0 °F 54% 30.28 in 10.0 mi Calm Calm - N/A   Clear
4:59 AM 48.2 °F 32.0 °F 54% 30.29 in 10.0 mi Calm Calm - N/A   Clear
5:19 AM 48.2 °F 30.2 °F 50% 30.29 in 10.0 mi Calm Calm - N/A   Clear
5:39 AM 48.2 °F 28.4 °F 46% 30.30 in 10.0 mi Calm Calm - N/A   Clear
5:59 AM 50.0 °F 26.6 °F 40% 30.30 in 10.0 mi Calm Calm - N/A   Clear
6:19 AM 48.2 °F 26.6 °F 43% 30.30 in 10.0 mi Calm Calm - N/A   Clear
6:39 AM 46.4 °F 28.4 °F 50% 30.32 in 10.0 mi Calm Calm - N/A   Clear
6:59 AM 46.4 °F 28.4 °F 50% 30.32 in 10.0 mi Calm Calm - N/A   Clear
7:19 AM 46.4 °F 28.4 °F 50% 30.33 in 10.0 mi Calm Calm - N/A   Clear
7:39 AM 48.2 °F 28.4 °F 46% 30.33 in 10.0 mi Calm Calm - N/A   Clear
7:59 AM 50.0 °F 28.4 °F 43% 30.34 in 10.0 mi Calm Calm - N/A   Clear
8:19 AM 50.0 °F 30.2 °F 47% 30.34 in 10.0 mi Calm Calm - N/A   Clear
8:39 AM 53.6 °F 33.8 °F 47% 30.35 in 10.0 mi Calm Calm - N/A   Clear
8:59 AM 55.4 °F 39.2 °F 54% 30.35 in 10.0 mi Calm Calm - N/A   Clear
9:19 AM 57.2 °F 32.0 °F 38% 30.36 in 10.0 mi Calm Calm - N/A   Clear
9:39 AM 60.8 °F 30.2 °F 31% 30.36 in 10.0 mi Calm Calm - N/A   Clear
9:59 AM 62.6 °F 23.0 °F 22% 30.36 in 10.0 mi Calm Calm - N/A   Clear
10:19 AM 62.6 °F 14.0 °F 15% 30.36 in 10.0 mi North 3.5 mph - N/A   Clear
10:39 AM 64.4 °F 12.2 °F 13% 30.36 in 10.0 mi Calm Calm - N/A   Clear
10:59 AM 64.4 °F 19.4 °F 18% 30.37 in 10.0 mi North 5.8 mph - N/A   Clear
11:19 AM 64.4 °F 24.8 °F 22% 30.37 in 10.0 mi NNE 8.1 mph - N/A   Clear
11:39 AM 64.4 °F 23.0 °F 21% 30.37 in 10.0 mi NNE 4.6 mph - N/A   Clear
11:59 AM 64.4 °F 17.6 °F 16% 30.36 in 10.0 mi NNW 4.6 mph - N/A   Clear
12:19 PM 64.4 °F 19.4 °F 18% 30.36 in 10.0 mi North 5.8 mph - N/A   Clear
12:39 PM 66.2 °F 21.2 °F 18% 30.35 in 10.0 mi Calm Calm - N/A   Clear
12:59 PM 64.4 °F 24.8 °F 22% 30.35 in 10.0 mi NW 3.5 mph - N/A   Clear
1:19 PM 66.2 °F 23.0 °F 19% 30.35 in 10.0 mi North 3.5 mph - N/A   Clear
1:39 PM 66.2 °F 21.2 °F 18% 30.35 in 10.0 mi North 8.1 mph - N/A   Clear
1:59 PM 66.2 °F 21.2 °F 18% 30.35 in 10.0 mi Calm Calm - N/A   Clear
2:19 PM 66.2 °F 21.2 °F 18% 30.35 in 10.0 mi NNW 5.8 mph - N/A   Clear
2:39 PM 66.2 °F 21.2 °F 18% 30.35 in 10.0 mi NNE 8.1 mph - N/A   Clear
2:59 PM 66.2 °F 21.2 °F 18% 30.35 in 10.0 mi North 6.9 mph - N/A   Clear
3:19 PM 66.2 °F 23.0 °F 19% 30.35 in 10.0 mi NNE 4.6 mph - N/A   Clear
3:39 PM 66.2 °F 24.8 °F 21% 30.36 in 10.0 mi NNW 4.6 mph - N/A   Clear
3:59 PM 66.2 °F 26.6 °F 23% 30.36 in 10.0 mi NNW 4.6 mph - N/A   Clear
4:19 PM 66.2 °F 26.6 °F 23% 30.36 in 10.0 mi North 3.5 mph - N/A   Clear
4:39 PM 64.4 °F 28.4 °F 26% 30.36 in 10.0 mi North 3.5 mph - N/A   Clear
4:59 PM 62.6 °F 28.4 °F 27% 30.36 in 10.0 mi NNW 3.5 mph - N/A   Clear
5:19 PM 60.8 °F 28.4 °F 29% 30.37 in 10.0 mi North 3.5 mph - N/A   Clear
5:39 PM 59.0 °F 28.4 °F 31% 30.37 in 10.0 mi Calm Calm - N/A   Clear
5:59 PM 59.0 °F 30.2 °F 34% 30.38 in 10.0 mi North 3.5 mph - N/A   Clear
6:19 PM 57.2 °F 30.2 °F 36% 30.38 in 10.0 mi North 3.5 mph - N/A   Clear
6:39 PM 55.4 °F 32.0 °F 41% 30.39 in 10.0 mi North 5.8 mph - N/A   Clear
6:59 PM 55.4 °F 32.0 °F 41% 30.39 in 10.0 mi North 4.6 mph - N/A   Clear
7:19 PM 57.2 °F 32.0 °F 38% 30.39 in 10.0 mi NNE 4.6 mph - N/A   Clear
7:39 PM 57.2 °F 32.0 °F 38% 30.39 in 10.0 mi NNE 4.6 mph - N/A   Clear
7:59 PM 55.4 °F 33.8 °F 44% 30.39 in 10.0 mi Calm Calm - N/A   Clear
8:19 PM 55.4 °F 33.8 °F 44% 30.39 in 10.0 mi NNE 3.5 mph - N/A   Clear
8:39 PM 55.4 °F 35.6 °F 47% 30.40 in 10.0 mi Calm Calm - N/A   Clear
8:59 PM 55.4 °F 35.6 °F 47% 30.39 in 10.0 mi NE 4.6 mph - N/A   Clear
9:19 PM 55.4 °F 35.6 °F 47% 30.39 in 10.0 mi NE 4.6 mph - N/A   Clear
9:39 PM 55.4 °F 35.6 °F 47% 30.40 in 10.0 mi NNE 3.5 mph - N/A   Clear
9:59 PM 55.4 °F 35.6 °F 47% 30.40 in 10.0 mi Calm Calm - N/A   Clear
10:19 PM 53.6 °F 35.6 °F 51% 30.40 in 10.0 mi Calm Calm - N/A   Clear
10:39 PM 53.6 °F 35.6 °F 51% 30.40 in 10.0 mi Calm Calm - N/A   Clear
10:59 PM 53.6 °F 35.6 °F 51% 30.40 in 10.0 mi Calm Calm - N/A   Clear
11:19 PM 50.0 °F 35.6 °F 58% 30.40 in 10.0 mi Calm Calm - N/A   Clear
11:39 PM 48.2 °F 35.6 °F 62% 30.39 in 10.0 mi Calm Calm - N/A   Clear
11:59 PM 48.2 °F 35.6 °F 62% 30.39 in 10.0 mi Calm Calm - N/A   Clear